Время (UTC), дата Ветер
(°,м/с) 
Видим.   Явления Облачность Т
(°С)
Тd
(°С)
f(%) Тe
(°С)
Pmin
(гПа)
dP
(гПа)
Po
(мм)
O2
(г/м3)
Тmin Tmax R s Состояние
почвы
00 18.08.15 090 (В) 20000 м    3/0 средняя 
[Ac trans]
+16.5 +3.5 42 +17  1011.1  -0.7  719  273           
03 18.08.15 130 (ЮВ) 20000 м    4/0 средняя 
[Ac trans]
+17 +4.1 42 +18  1010.3  -0.7  719  272  +16.1        сухая 
06 18.08.15 150 (ЮВ) 20000 м    4/3 600 м средняя 
[Cu hum|Ac trans]
+25 +6.3 30 +25  1008.7  0.1  719  264           
09 18.08.15 180 (Ю) 20000 м    3/3 600 м 
[Cu hum]
+30.6 +11.4 31 +35  1006.5  -1.1  718  258           
12 18.08.15 260 (З) 20000 м    6/6 600 м 
+32.2 +7.9 22 +32  1005.6  -0.7  717  257           
15 18.08.15 280 (З) 3{15}  20000 м  гроза без осадков{ливн. осадки}  8/5 600 м кучево-дожд., средняя 
[Cb cap|Ac trans]
+21.9 +14.3 62 +31  1008.4  1.1  718  265    +32.6  0.5     
18 18.08.15 330 (СЗ) 20000 м  зарница{гроза, ливн. осадки}  4/4 1000 м кучево-дожд. 
[Cb calv]
+18.9 +15.9 83 +31  1010.2  1.2  719  267           
21 18.08.15 070 (В) 20000 м    ясно 
+17.3 +14.6 84 +28  1011.3  0.7  720  270           
00 19.08.15 190 (Ю) 20000 м    3/0 средняя 
[Ac trans]
+17.2 +14.9 86 +28  1011.5  0.2  720  270           
03 19.08.15 260 (З) 20000 м    3/0 средняя 
[Ac trans]
+18 +14 77 +27  1012  0.6  720  269  +15.9    0.5    сухая 
06 19.08.15 290 (З) 20000 м    3/0 средняя 
[Ac trans]
+24.2 +14.8 56 +34  1012  1.1  721  264           
09 19.08.15 310 (СЗ) 20000 м    8/4 600 м верхняя 
[Cu hum|Ci fib]
+26.2 +14 47 +34  1011.9  0.2  721  262           
12 19.08.15 340 (С) 20000 м    9/6 1000 м кучево-дожд., средняя, верхняя 
[Cb calv|Ac trans|Ci fib]
+27.3 +13 41 +34  1011.6  -0.2  721  262           
15 19.08.15 060 (СВ) 20000 м  в посл. час ливневой дождь{гроза}  6/3 1000 м кучево-дожд., средняя 
[Cb calv|Ac trans]
+25.4 +13.5 48 +33  1012.6  0.7  722  263    +28.3       
18 19.08.15 040 (СВ) 20000 м  {гроза, ливн. осадки}  8/5 1000 м кучево-дожд., средняя 
[Cb calv|Ac trans]
+21.7 +13 58 +28  1015.1  1.7  723  267           
21 19.08.15 040 (СВ) 20000 м    8/4 1000 м кучево-дожд., средняя 
[Cb calv|Ac trans]
+18.9 +13.7 72 +26  1015.8  0.3  723  270           
00 20.08.15 050 (СВ) 20000 м    8/0 
+17.1 +13.1 77 +23  1016.6  0.4  723  272           
03 20.08.15 080 (В) 20000 м    10/5 1000 м кучево-дожд., средняя 
[Cb calv|Ac und]
+16.8 +13.4 80 +24  1017.2  0.5  724  272  +16.8        сухая 
06 20.08.15 070 (В) 20000 м    10/4 300 м кучево-дожд., средняя 
[Cb calv|Ac und]
+17.9 +13.6 76 +25  1017.8  0.7  724  271           
09 20.08.15 080 (В) 20000 м    10/4 600 м средняя 
[Sc diur, vesp|Ac und]
+19.8 +14.3 71 +28  1017.7  0.3  725  269           
12 20.08.15 080 (В) 20000 м    10/5 600 м средняя 
[Sc|Ac und]
+19.6 +13.6 68 +27  1017.9  0.1  725  270           
15 20.08.15 090 (В) 20000 м    10/4 600 м средняя 
[Sc|Ac und]
+19 +13.4 70 +26  1018.7  0.6  725  270    +20.6       
18 20.08.15 110 (В) 20000 м    10/3 600 м средняя 
[Sc|Ac und]
+17.4 +10.2 63 +20  1019.3  0.3  725  273           
21 20.08.15 060 (СВ) 20000 м    10/3 600 м средняя 
[Sc|Ac und]
+17.5 +8.7 56 +18  1018.6  -0.7  725  273           
00 21.08.15 040 (СВ) 20000 м    10/4 600 м средняя 
[Sc|Ac und]
+16.8 +8.9 60 +17  1018.5  -0.2  725  273           
03 21.08.15 070 (В) 20000 м    10/3 600 м средняя 
[Sc|Ac und]
+16.5 +7.8 56 +17  1019.1  0.5  725  274  +16.4        сухая 
06 21.08.15 100 (В) 20000 м    10/3 600 м средняя 
[Sc|Ac und]
+19.6 +7.3 45 +20  1019.3  0.7  726  272           
09 21.08.15 090 (В) 8-12{12}  20000 м    4/1 600 м средняя 
[Sc|Ac trans]
+23.9 +6.8 33 +24  1017.8  -0.7  725  267           
12 21.08.15 110 (В) 9-13{13}  20000 м    6/3 600 м средняя 
[Sc|Ac trans]
+24.4 +8.2 36 +24  1017.2  -0.4  725  267           
15 21.08.15 120 (ЮВ) 8-10{13}  20000 м    10/4 1000 м средняя, верхняя 
[Sc|Ac trans|Ci]
+21.5 +10 48 +23  1017.7  725  269    +24.9       
18 21.08.15 100 (В) 7{11}  20000 м    8/5 1000 м средняя 
[Sc|Ac trans]
+20.4 +8.6 47 +20  1017.9  725  270           
21 21.08.15 080 (В) 6-10{10}  20000 м    3/0 средняя 
[Ac trans]
+19 +7.3 47 +19  1017.3  -0.9  724  272           
00 22.08.15 070 (В) 5{10}  20000 м    3/0 средняя 
[Ac trans]
+16.6 +3.9 43 +16  1017.3  -0.4  724  274           
03 22.08.15 070 (В) 20000 м    3/0 средняя 
[Ac trans]
+15.7 +10.3 70 +17  1017.2  -0.1  724  274  +15.3        сухая 
06 22.08.15 100 (В) 10-13{14}  20000 м    6/3 600 м средняя 
[Sc|Ac trans]
+20.2 +6.2 40 +20  1016.9  0.4  724  271           
09 22.08.15 110 (В) 11-17{17}  20000 м    3/0 средняя 
[Ac trans]
+24.3 +4.9 29 +24  1015.6  -0.6  723  267           
12 22.08.15 110 (В) 9-14{17}  20000 м    ясно 
+24.8 +6.7 31 +25  1014.6  -0.9  723  266           
18 22.08.15 090 (В) 6{11}  20000 м    ясно 
+19.5 +8.9 50 +20  1014.5  -0.4  722  270           
21 22.08.15 100 (В) 5{10}  20000 м    ясно 
+16.4 +11.7 74 +20  1014.1  -0.9  722  272           
00 23.08.15 090 (В) 20000 м    ясно 
+15 +10.8 76 +18  1013.1  -1.2  721  273           
03 23.08.15 090 (В) 20000 м    6/6 600 м 
[Sc]
+15.4 +10.9 75 +18  1013  721  273  +14.4        сухая 
06 23.08.15 100 (В) 8-11{12}  20000 м    9/6 600 м средняя 
[Sc|Ac trans]
+19.3 +11.3 60 +23  1012.1  -0.2  720  269           
09 23.08.15 100 (В) 7-12{13}  20000 м    9/6 1000 м средняя 
[Sc|Ac trans]
+23.6 +12.2 49 +29  1010.9  -0.4  720  265           
12 23.08.15 080 (В) 7-12{12}  20000 м    9/5 1000 м средняя, верхняя 
[Cu hum|Ac trans|Ci fib]
+25.9 +11.2 40 +30  1009.5  -1  719  263           
15 23.08.15 120 (ЮВ) 6{12}  20000 м    9/5 1000 м кучево-дожд., средняя, верхняя 
[Cb calv|Ac trans|Ci fib]
+23.2 +11 46 +27  1010.2  0.2  720  265    +26.3       
18 23.08.15 100 (В) 20000 м    8/4 1000 м кучево-дожд., средняя 
[Cb calv|Ac trans]
+20.5 +12 58 +25  1010.5  -0.2  719  267           
21 23.08.15 070 (В) 20000 м    10/4 1000 м кучево-дожд., средняя 
[Cb calv|Ac und]
+19.5 +12.1 62 +25  1010.1  -0.5  719  268           
00 24.08.15 090 (В) 20000 м    10/3 1000 м кучево-дожд., средняя 
[Cb calv|Ac und]
+16.8 +11.7 72 +21  1009.5  -1  718  270           
03 24.08.15 040 (СВ) 20000 м    8/3 600 м средняя 
[Sc|Ac trans]
+16.4 +11.4 72 +21  1009.3  -0.3  718  271  +15.4        сухая 
06 24.08.15 070 (В) 20000 м  слаб. ливневой дождь  10/8 600 м кучево-дожд., средняя 
[Cb cap|Ac und]
+18.4 +12.8 70 +25  1010  719  269           
09 24.08.15 090 (В) 8-12{12}  4000 м  ливневой дождь  10/8 300 м кучево-дожд., средняя 
[Cb cap|Ac und]
+16.6 +15.6 94 +27  1011.6  1.2  720  270           
12 24.08.15 140 (ЮВ) 4{12}  20000 м  слаб. ливневой дождь  10/8 300 м кучево-дожд., средняя 
[Cb cap|Ac und]
+15.2 +12.9 86 +21  1013  721  272           
15 24.08.15 170 (Ю) 20000 м  {ливн. осадки}  10/5 600 м кучево-дожд., средняя 
[Cb calv|Ac und]
+16 +11.6 75 +20  1012.9  0.1  721  272    +19.7  14     
18 24.08.15 270 (З) 20000 м  {ливн. осадки}  9/3 600 м кучево-дожд., средняя 
[Cb calv|Ac trans]
+15.9 +11.7 76 +21  1015.1  2.1  722  273           
21 24.08.15 060 (СВ) 20000 м    8/3 1000 м кучево-дожд., средняя 
[Cb calv|Ac trans]
+16 +8.9 63 +16  1016.5  1.2  723  274           
00 25.08.15 060 (СВ) 2000 м    4/0 средняя 
[Ac trans]
+13.1 +0.6 42 +12  1017.9  0.7  724  278           
03 25.08.15 070 (В) 20000 м    5/0 средняя, верхняя 
[Ac trans|Ci fib]
+11.1 -2.1 40 +10  1019  0.7  724  281  +10.8        влажная 
06 25.08.15 090 (В) 9-11{11}  20000 м    8/0 средняя, верхняя 
[Ac lent|Ci]
+15.8 -2.7 28 +15  1019.1  0.9  725  276           
09 25.08.15 090 (В) 9-13{13}  20000 м    9/5 1000 м средняя, верхняя 
[Sc|Ac As|Ci]
+19.7 +0.8 28 +20  1017.7  -0.6  724  272           
12 25.08.15 090 (В) 7-11{13}  20000 м    8/3 1000 м средняя 
[Sc|Ac trans]
+22.1 +2.7 28 +22  1016.6  -0.6  724  269           
15 25.08.15 090 (В) 5{12}  20000 м    8/0 средняя, верхняя 
[Ac lent|Ci]
+19.3 +5.2 40 +20  1016.9  -0.2  724  272    +22.3       
18 25.08.15 070 (В) 20000 м    6/0 средняя 
[Ac trans]
+17.3 -4.6 22 +17  1017.5  -0.1  724  275           
21 25.08.15 080 (В) 20000 м    8/0 средняя 
[Ac trans]
+14.1 -4.2 28 +14  1017.5  -0.5  723  278           
00 26.08.15 070 (В) 20000 м    10/0 средняя, верхняя 
[Ac und|Ci sp]
+12 +2.2 51 +11  1017.6  -0.2  723  279           
03 26.08.15 080 (В) 20000 м    9/0 средняя, верхняя 
[Ac trans|Ci fib]
+11.6 +6.6 71 +11  1018.3  0.6  724  279  +11.4        влажная 
06 26.08.15 090 (В) 20000 м    8/3 600 м верхняя 
[Sc|Ci]
+17 +10.3 65 +19  1017.8  0.5  724  273           
09 26.08.15 100 (В) 7-14{14}  20000 м    8/3 600 м верхняя 
[Sc|Ci fib]
+21.6 +8 42 +22  1017  0.1  724  269           
12 26.08.15 100 (В) 7-10{14}  20000 м    8/0 верхняя 
[Ci fib]
+21.6 +8 42 +22  1017  -0.3  724  269           
15 26.08.15 100 (В) 6{10}  20000 м    6/0 верхняя 
[Ci fib]
+22.4 +4.3 31 +22  1017.1  0.4  724  269    +24.4       
18 26.08.15 090 (В) 20000 м    ясно 
+16.5 +5.9 49 +17  1018.9  0.7  725  274           
21 26.08.15 110 (В) 20000 м    ясно 
+14.7 +6.4 57 +15  1019.2  725  276           
00 27.08.15 110 (В) 20000 м    ясно 
+13.7 +6.9 63 +14  1019.4  0.1  725  277           
03 27.08.15 100 (В) 20000 м    ясно 
+12.5 +8.1 75 +12  1019.8  0.2  725  278  +12.2        сухая 
06 27.08.15 110 (В) 20000 м    ясно 
+20.5 +10.4 52 +23  1019  0.6  725  270           
09 27.08.15 090 (В) 5{10}  20000 м    ясно 
+24.4 +2.1 23 +24  1018.2  -0.2  725  268           
12 27.08.15 110 (В) 20000 м    ясно 
+26 +2.6 22 +26  1017.2  -0.7  725  266           
15 27.08.15 130 (ЮВ) 20000 м    ясно 
+24.3 +2.3 24 +24  1017.3  -0.2  725  268    +26.1       
18 27.08.15 160 (Ю) 20000 м    ясно 
+19.5 +3.4 34 +21  1019  0.9  725  272           
21 27.08.15 120 (ЮВ) 20000 м    ясно 
+16.9 +5.2 46 +18  1019.7  0.2  725  274           
00 28.08.15 190 (Ю) 20000 м    3/0 верхняя 
[Ci fib]
+13.8 +5.7 58 +14  1019.8  -0.5  725  277           
03 28.08.15 090 (В) 20000 м    8/0 средняя, верхняя 
[Ac trans|Ci fib]
+13.9 +6.5 61 +15  1020.1  0.3  725  277  +13.8        сухая 
06 28.08.15 100 (В) 20000 м    8/0 средняя, верхняя 
[Ac trans|Ci fib]
+21.8 +7.3 39 +22  1019.5  0.9  726  270           
09 28.08.15 110 (В) 20000 м    8/0 верхняя 
[Ci fib]
+25.8 +5 26 +26  1018.9  726  266           
12 28.08.15 090 (В) 20000 м    8/0 верхняя 
[Ci fib]
+26.3 +3.1 22 +26  1018.4  -0.4  726  266           
15 28.08.15 130 (ЮВ) 20000 м    6/0 верхняя 
[Ci fib]
+25.1 +3.8 25 +25  1018.5  0.1  726  267    +26.7       
18 28.08.15 130 (ЮВ) 20000 м    6/0 верхняя 
[Ci fib]
+19.2 +2.4 33 +20  1020.8  1.2  727  273           
21 28.08.15 130 (ЮВ) 20000 м    3/0 верхняя 
[Ci fib]
+17.5 +4.2 41 +18  1020.9  0.1  726  274           
00 29.08.15 120 (ЮВ) 20000 м    ясно 
+14.8 +5 52 +16  1021.1  -0.3  726  277           
03 29.08.15 140 (ЮВ) 20000 м    1/0 верхняя 
[Ci fib]
+14.4 +5.8 56 +15  1021.5  0.3  726  277  +11.1        сухая 
06 29.08.15 140 (ЮВ) 20000 м    ясно 
+22.6 +7.4 38 +23  1020.2  0.2  727  269           
09 29.08.15 100 (В) 20000 м    ясно 
+27.2 +4.7 24 +27  1019.1  -0.4  726  265           
12 29.08.15 090 (В) 20000 м    ясно 
+28.9 +1 16 +29  1017.5  -1.2  725  264           
15 29.08.15 110 (В) 20000 м    ясно 
+26.9 +1.4 19 +27  1017  -1.2  725  266    +29.6       
18 29.08.15 220 (ЮЗ) 20000 м    1/0 верхняя 
[Ci fib]
+19.8 +3.7 35 +21  1018.5  0.2  725  272           
21 29.08.15 240 (ЮЗ) 20000 м    1/0 верхняя 
[Ci fib]
+19.4 +3.1 34 +20  1017.9  -0.6  725  272           
00 30.08.15 250 (З) 20000 м    ясно 
+18.1 +4.2 40 +18  1017.4  -0.7  724  273           
03 30.08.15 250 (З) 20000 м    ясно 
+17.5 +4.7 43 +18  1017.1  -0.4  724  273  +16.6        сухая 
06 30.08.15 270 (З) 20000 м    ясно 
+24.2 +2.9 25 +24  1016.4  0.4  724  267           
09 30.08.15 280 (З) 7-11{12}  20000 м    4/0 верхняя 
[Ci fib]
+27.7 +3.1 21 +28  1015.2  -0.5  724  264           
12 30.08.15 290 (З) 7-11{12}  20000 м    9/0 средняя 
[Ac trans]
+27.4 +5.4 25 +27  1014.5  -0.6  723  264           
15 30.08.15 340 (С) 4{11}  20000 м    5/0 средняя 
[Ac trans]
+24.6 +7.4 33 +25  1015.4  0.4  723  266    +29.6       
18 30.08.15 340 (С) 20000 м    8/0 средняя 
[Ac trans]
+21.6 +3.5 30 +22  1017.8  1.7  725  270           
21 30.08.15 330 (СЗ) 20000 м    6/0 средняя 
[Ac trans]
+18.9 +1.8 32 +20  1018.9  0.6  725  273           
00 31.08.15 350 (С) 20000 м    3/0 средняя 
[Ac trans]
+15.4 +3 43 +17  1019.1  -0.4  725  276           
03 31.08.15 270 (З) 20000 м    3/0 средняя 
[Ac trans]
+15 +3.2 45 +16  1019.2  725  276  +12.3        сухая 
06 31.08.15 350 (С) 20000 м    ясно 
+22.8 +2.1 26 +23  1018.2  0.3  725  269           
09 31.08.15 280 (З) 20000 м    1/0 верхняя 
[Ci fib]
+25.6 +1.4 21 +26  1016.9  -0.7  725  267           
12 31.08.15 290 (З) 5{14}  20000 м    ясно 
+26.4 -0.8 17 +26  1015.8  -0.9  724  266           
15 31.08.15 280 (З) 5{10}  20000 м    1/0 верхняя 
[Ci fib]
+24.6 +0.8 21 +25  1016  0.1  724  267    +26.9       
18 31.08.15 310 (СЗ) 20000 м    ясно 
+19.9 +0.6 27 +21  1017.7  0.8  724  272           
21 31.08.15 290 (З) 20000 м    ясно 
+17.5 +1.2 33 +18  1018.1  0.1  724  274           
00 01.09.15 280 (З) 20000 м    ясно 
+17.5 +2 35 +18  1017.9  -0.2  724  274           
03 01.09.15 260 (З) 20000 м    3/0 средняя 
[Ac trans]
+14.7 +5 52 +15  1018.5  -0.1  724  276  +13.1        сухая 
06 01.09.15 240 (ЮЗ) 20000 м    10/3 600 м средняя 
[Sc|Ac und]
+20.9 +5.3 36 +21  1017.8  -0.1  725  270           
09 01.09.15 270 (З) 8-12{13}  20000 м    5/1 600 м средняя 
[Sc|Ac trans]
+25.9 +4.2 25 +26  1015.9  -1  724  266           
12 01.09.15 270 (З) 7-11{14}  20000 м    8/8 1000 м 
[Sc]
+27.2 +6.2 26 +27  1014.6  -1  723  264           
15 01.09.15 300 (СЗ) 5{13}  20000 м    8/5 1000 м средняя, верхняя 
[Sc|Ac trans|Ci fib]
+25.7 +7.4 31 +26  1015.1  0.2  723  265    +28.3       
18 01.09.15 270 (З) 20000 м    4/1 1000 м средняя 
[Sc|Ac trans]
+22.6 +10.1 45 +25  1016.3  0.7  724  268           
21 01.09.15 270 (З) 20000 м    ясно 
+20.4 +10 51 +22  1016.9  0.2  724  270           
00 02.09.15 270 (З) 20000 м    ясно 
+19.2 +9.3 53 +21  1016.7  -0.4  724  271           
03 02.09.15 270 (З) 20000 м    3/0 средняя 
[Ac trans]
+17.7 +9.7 59 +19  1016.8  0.1  724  272  +17.1        сухая 
06 02.09.15 260 (З) 20000 м    ясно 
+26 +9.3 35 +27  1015.1  -0.2  723  264           
09 02.09.15 270 (З) 7-11{12}  20000 м    4/0 верхняя 
[Ci fib]
+29.4 +9.6 29 +31  1013.7  -0.7  723  261           
12 02.09.15 280 (З) 5{12}  20000 м    6/1 600 м средняя 
[Cu hum|Ac trans]
+29.4 +6.3 23 +29  1013.1  -0.6  722  262           
15 02.09.15 280 (З) 20000 м    4/0 средняя 
[Ac trans]
+29.6 +6.6 23 +30  1011.7  -1.3  721  261    +30.5       
18 02.09.15 280 (З) 20000 м    4/0 средняя 
[Ac trans]
+26 +6.9 30 +26  1013.1  0.8  722  264           
21 02.09.15 260 (З) 20000 м    ясно 
+23.2 +8.7 40 +23  1013.3  -0.3  722  267           
00 03.09.15 290 (З) 20000 м    ясно 
+22.3 +10.3 47 +25  1013  -0.4  721  267           
03 03.09.15 290 (З) 20000 м    ясно 
+22.5 +10.9 48 +26  1012.8  0.1  721  266  +20        сухая 
06 03.09.15 300 (СЗ) 20000 м    ясно 
+27.6 +10.5 34 +30  1012.3  0.3  722  262           
09 03.09.15 300 (СЗ) 20000 м    ясно 
+31.1 +8.4 24 +31  1011.2  -0.5  721  259           
12 03.09.15 230 (ЮЗ) 20000 м    3/3 600 м 
[Cu hum]
+33.1 +5.7 18 +33  1010  -0.9  721  258           
15 03.09.15 350 (С) 20000 м    ясно 
+30.8 +5 20 +31  1010.2  -0.2  720  260    +33.3       
18 03.09.15 360 (С) 20000 м    ясно 
+25.5 +6.6 30 +26  1011.5  0.5  721  265           
21 03.09.15 360 (С) 20000 м    ясно 
+22.1 +7.7 40 +22  1011.8  -0.3  721  267           
00 04.09.15 360 (С) 20000 м    ясно 
+22.2 +7.3 38 +22  1011.9  0.1  721  267           
03 04.09.15 360 (С) 20000 м    ясно 
+21.8 +7 38 +22  1012.3  0.4  721  268  +20.7        сухая 
06 04.09.15 080 (В) 20000 м    ясно 
+29.2 +6.8 24 +29  1011.3  0.2  721  261           
Время (UTC), дата Ветер
(°,м/с) 
Видим.   Явления Облачность Т
(°С)
Тd
(°С)
f(%) Тe
(°С)
Pmin
(гПа)
dP
(гПа)
Po
(мм)
O2
(г/м3)
Тmin Tmax R s Состояние
почвы